When you browse on this site, cookies collect data to enhance your experience and personalize the content and advertising you see.
Visit our Privacy Policy to learn more. By continuing to use the site, you agree to this use of cookies and data.

Meteo pe oră la Kamarang

Astăzi, 4 August, Marţi

Timp Temperatura Precipitaţii Vânt Presiune Umiditate
00:00 +20°C° 2 mm 0 m/s 715 mmHg 98%
01:00 +20°C° 2 mm 0 m/s 714 mmHg 99%
02:00 +20°C° 0 mm 0 m/s 714 mmHg 99%
03:00 +20°C° 1.4 mm 0 m/s 714 mmHg 99%
04:00 +20°C° 1.4 mm 0 m/s 714 mmHg 99%
05:00 +20°C° 1.4 mm 0 m/s 714 mmHg 99%
06:00 +21°C° 0.7 mm 0 m/s 714 mmHg 98%
07:00 +21°C° 0.7 mm 0 m/s 715 mmHg 97%
08:00 +22°C° 0.7 mm 0 m/s 715 mmHg 96%
09:00 +24°C° 0.6 mm 0 m/s 715 mmHg 90%
10:00 +25°C° 0.6 mm 0 m/s 715 mmHg 84%
11:00 +27°C° 0.6 mm 0 m/s 715 mmHg 78%
12:00 +27°C° 2.4 mm 0 m/s 715 mmHg 82%
13:00 +26°C° 2.4 mm 0 m/s 714 mmHg 85%
14:00 +26°C° 2.4 mm 0 m/s 713 mmHg 89%
15:00 +26°C° 2 mm 0 m/s 713 mmHg 91%
16:00 +25°C° 2 mm 0 m/s 713 mmHg 93%
17:00 +25°C° 2 mm 0 m/s 712 mmHg 95%
18:00 +24°C° 1.7 mm 0 m/s 713 mmHg 95%
19:00 +22°C° 1.7 mm 0 m/s 713 mmHg 96%
20:00 +21°C° 1.7 mm 0 m/s 714 mmHg 96%
21:00 +21°C° 2 mm 0 m/s 714 mmHg 97%
22:00 +21°C° 2 mm 0 m/s 714 mmHg 98%
23:00 +21°C° 2 mm 0 m/s 715 mmHg 98%

Mâine, 5 August, Miercuri

Timp Temperatura Precipitaţii Vânt Presiune Umiditate
00:00 +21°C° 2.7 mm 0 m/s 714 mmHg 99%
01:00 +21°C° 2.7 mm 0 m/s 714 mmHg 99%
02:00 +20°C° 2.7 mm 0 m/s 713 mmHg 99%
03:00 +20°C° 0.5 mm 0 m/s 713 mmHg 99%
04:00 +20°C° 0.5 mm 0 m/s 713 mmHg 99%
05:00 +20°C° 0.5 mm 0 m/s 713 mmHg 99%
06:00 +20°C° 0.4 mm 0 m/s 714 mmHg 99%
07:00 +21°C° 0.4 mm 0 m/s 714 mmHg 98%
08:00 +21°C° 0.4 mm 0 m/s 715 mmHg 98%
09:00 +22°C° 0.3 mm 0 m/s 715 mmHg 95%
10:00 +22°C° 0.3 mm 0 m/s 715 mmHg 93%
11:00 +23°C° 0.3 mm 0 m/s 715 mmHg 91%
12:00 +26°C° 0.3 mm 0 m/s 714 mmHg 78%
13:00 +28°C° 0.3 mm 0 m/s 714 mmHg 66%
14:00 +31°C° 0.3 mm 0 m/s 713 mmHg 54%
15:00 +29°C° 1.2 mm 0 m/s 712 mmHg 68%
16:00 +29°C° 1.2 mm 1 m/s 712 mmHg 82%
17:00 +26°C° 1.2 mm 1 m/s 711 mmHg 95%
18:00 +25°C° 1.4 mm 1 m/s 712 mmHg 96%
19:00 +24°C° 1.4 mm 1 m/s 712 mmHg 97%
20:00 +21°C° 1.4 mm 0 m/s 713 mmHg 97%
21:00 +21°C° 0.8 mm 0 m/s 713 mmHg 98%
22:00 +21°C° 0.8 mm 0 m/s 713 mmHg 98%
23:00 +21°C° 0.8 mm 0 m/s 714 mmHg 99%

Poimâine, 6 August, Joi

Timp Temperatura Precipitaţii Vânt Presiune Umiditate
00:00 +20°C° 0.4 mm 0 m/s 713 mmHg 99%
01:00 +20°C° 0.4 mm 0 m/s 713 mmHg 99%
02:00 +20°C° 0.4 mm 0 m/s 712 mmHg 99%
03:00 +20°C° 0 mm 0 m/s 712 mmHg 99%
04:00 +20°C° 0 mm 0 m/s 712 mmHg 99%
05:00 +19°C° 0 mm 0 m/s 712 mmHg 99%
06:00 +20°C° 0 mm 0 m/s 713 mmHg 97%
07:00 +21°C° 0 mm 0 m/s 713 mmHg 95%
08:00 +22°C° 0 mm 0 m/s 714 mmHg 94%
09:00 +24°C° 0.5 mm 0 m/s 714 mmHg 87%
10:00 +26°C° 0.5 mm 0 m/s 714 mmHg 81%
11:00 +27°C° 0.5 mm 0 m/s 714 mmHg 75%
12:00 +30°C° 0.5 mm 1 m/s 713 mmHg 74%
13:00 +30°C° 0.5 mm 1 m/s 713 mmHg 73%
14:00 +30°C° 0.5 mm 1 m/s 712 mmHg 72%
15:00 +29°C° 1.2 mm 1 m/s 712 mmHg 79%
16:00 +28°C° 1.2 mm 1 m/s 711 mmHg 87%
17:00 +25°C° 1.2 mm 0 m/s 711 mmHg 94%
18:00 +24°C° 0.7 mm 0 m/s 712 mmHg 95%
19:00 +23°C° 0.7 mm 0 m/s 712 mmHg 96%
20:00 +21°C° 0.7 mm 0 m/s 713 mmHg 97%
21:00 +21°C° 0.3 mm 0 m/s 713 mmHg 97%
22:00 +21°C° 0.3 mm 0 m/s 714 mmHg 97%
23:00 +21°C° 0.3 mm 0 m/s 714 mmHg 98%

7 August, Vineri

Timp Temperatura Precipitaţii Vânt Presiune Umiditate
00:00 +21°C° 0.9 mm 0 m/s 714 mmHg 98%
01:00 +20°C° 0.9 mm 0 m/s 713 mmHg 98%
02:00 +20°C° 0.9 mm 0 m/s 713 mmHg 99%
03:00 +20°C° 0.8 mm 0 m/s 713 mmHg 99%
04:00 +20°C° 0.8 mm 0 m/s 713 mmHg 99%
05:00 +20°C° 0.8 mm 0 m/s 713 mmHg 99%
06:00 +20°C° 0 mm 0 m/s 713 mmHg 97%
07:00 +21°C° 0 mm 0 m/s 714 mmHg 95%
08:00 +22°C° 0 mm 0 m/s 715 mmHg 93%
09:00 +25°C° 0 mm 0 m/s 715 mmHg 80%
10:00 +29°C° 0 mm 1 m/s 715 mmHg 67%
11:00 +31°C° 0 mm 1 m/s 715 mmHg 54%
12:00 +31°C° 0.3 mm 1 m/s 714 mmHg 56%
13:00 +31°C° 0.3 mm 1 m/s 714 mmHg 58%
14:00 +31°C° 0.3 mm 1 m/s 713 mmHg 60%
15:00 +30°C° 1.2 mm 1 m/s 713 mmHg 72%
16:00 +28°C° 1.2 mm 1 m/s 712 mmHg 83%
17:00 +25°C° 1.2 mm 0 m/s 712 mmHg 95%
18:00 +24°C° 0.9 mm 0 m/s 712 mmHg 96%
19:00 +23°C° 0.9 mm 0 m/s 713 mmHg 96%
20:00 +22°C° 0.9 mm 0 m/s 713 mmHg 97%
21:00 +21°C° 0.3 mm 0 m/s 714 mmHg 97%
22:00 +21°C° 0.3 mm 0 m/s 714 mmHg 98%
23:00 +21°C° 0.3 mm 0 m/s 714 mmHg 98%

8 August, Sâmbătă

Timp Temperatura Precipitaţii Vânt Presiune Umiditate
00:00 +20°C° 0.1 mm 0 m/s 714 mmHg 98%
01:00 +20°C° 0.1 mm 0 m/s 713 mmHg 98%
02:00 +20°C° 0.1 mm 0 m/s 713 mmHg 99%
03:00 +20°C° 0.2 mm 0 m/s 713 mmHg 99%
04:00 +20°C° 0.2 mm 0 m/s 713 mmHg 99%
05:00 +20°C° 0.2 mm 0 m/s 713 mmHg 99%
06:00 +21°C° 0.1 mm 0 m/s 714 mmHg 97%
07:00 +22°C° 0.1 mm 0 m/s 714 mmHg 96%
08:00 +22°C° 0.1 mm 0 m/s 715 mmHg 95%
09:00 +24°C° 1.2 mm 0 m/s 715 mmHg 92%
10:00 +25°C° 1.2 mm 0 m/s 715 mmHg 90%
11:00 +26°C° 1.2 mm 0 m/s 715 mmHg 88%
12:00 +26°C° 2 mm 0 m/s 714 mmHg 89%
13:00 +28°C° 2 mm 1 m/s 713 mmHg 89%
14:00 +28°C° 2 mm 1 m/s 713 mmHg 90%
15:00 +27°C° 1.9 mm 1 m/s 712 mmHg 91%
16:00 +27°C° 1.9 mm 1 m/s 712 mmHg 93%
17:00 +26°C° 1.9 mm 1 m/s 712 mmHg 94%
18:00 +25°C° 1.1 mm 1 m/s 713 mmHg 96%
19:00 +22°C° 1.1 mm 0 m/s 713 mmHg 97%
20:00 +22°C° 1.1 mm 0 m/s 714 mmHg 98%
21:00 +21°C° 0.1 mm 0 m/s 714 mmHg 98%
22:00 +21°C° 0.1 mm 0 m/s 714 mmHg 98%
23:00 +21°C° 0.1 mm 0 m/s 714 mmHg 98%

9 August, Duminică

Timp Temperatura Precipitaţii Vânt Presiune Umiditate
00:00 +20°C° 0 mm 0 m/s 714 mmHg 98%
01:00 +20°C° 0 mm 0 m/s 713 mmHg 98%
02:00 +20°C° 0 mm 0 m/s 713 mmHg 98%
03:00 +20°C° 0.4 mm 0 m/s 713 mmHg 98%
04:00 +20°C° 0.4 mm 0 m/s 713 mmHg 99%
05:00 +20°C° 0.4 mm 0 m/s 713 mmHg 99%
06:00 +20°C° 2.3 mm 0 m/s 713 mmHg 99%
07:00 +20°C° 2.3 mm 0 m/s 714 mmHg 99%
08:00 +20°C° 2.3 mm 0 m/s 715 mmHg 99%
09:00 +22°C° 0.7 mm 0 m/s 715 mmHg 93%
10:00 +23°C° 0.7 mm 0 m/s 715 mmHg 87%
11:00 +27°C° 0.7 mm 1 m/s 715 mmHg 82%
12:00 +27°C° 0.2 mm 0 m/s 714 mmHg 72%
13:00 +29°C° 0.2 mm 0 m/s 713 mmHg 63%
14:00 +31°C° 0.2 mm 0 m/s 712 mmHg 53%
15:00 +29°C° 0.8 mm 0 m/s 712 mmHg 67%
16:00 +29°C° 0.8 mm 1 m/s 711 mmHg 80%
17:00 +27°C° 0.8 mm 1 m/s 711 mmHg 93%
18:00 +24°C° 1.3 mm 0 m/s 711 mmHg 95%
19:00 +23°C° 1.3 mm 0 m/s 712 mmHg 96%
20:00 +21°C° 1.3 mm 0 m/s 712 mmHg 97%
21:00 +21°C° 1.9 mm 0 m/s 713 mmHg 97%
22:00 +21°C° 1.9 mm 0 m/s 713 mmHg 98%
23:00 +21°C° 1.9 mm 0 m/s 713 mmHg 99%
Arată mai mult